Home   Weather   St. Louis   Past weeks

Flag for USA Past Weather in St. Louis, Missouri, USA — Yesterday and Last 2 Weeks

Now
66 °F

Mostly cloudy.


Feels Like: 66 °F
Forecast: 59 / 76 °F
Wind: 13 mph from Southeast

Location: Lambert-St. Louis International Airport

Current Time: Apr 29, 2017 at 2:37:04 pm

Latest Report: Apr 29, 2017 at 1:51 pm


Visibility: 9 mi

Pressure: 29.79 "Hg

Humidity: 87%

Dew Point: 62 °F

Location of St. LouisLocation

Past Weather in St. Louis — Graph

°F

St. Louis Temperature Yesterday

Maximum temperature yesterday: 60 °F (at 6:51 pm)
Minimum temperature yesterday: 55 °F (at 5:51 am)
Average temperature yesterday: 57 °F

High & Low Weather Summary for the Past Weeks

 TemperatureHumidityPressure
High88 °F (Apr 19, 3:51 pm)93% (Apr 28, 3:51 pm)30.17 "Hg (Apr 28, 3:51 pm)
Low45 °F (Apr 24, 5:51 am)18% (Apr 24, 2:51 pm)29.39 "Hg (Apr 26, 7:51 pm)
Average64 °F62%29.89 "Hg
* Reported Apr 14 12:51 pm — Apr 29 12:51 pm, St. Louis, Weather by CustomWeather, © 2017

Note: Actual official high and low records may vary slightly from our data, if they occured in-between our weather recording intervals... More about our weather records

Advertising

St. Louis Weather History for the Previous 24 Hours

Scroll right to see more
 ConditionsComfort  
Time TempWeatherWind HumidityBarometerVisibility
12:51 pm
Sat, Apr 29
63 °FLight rain. Low clouds.10 mph90%29.84 "Hg9 mi
11:51 am61 °FMostly cloudy.8 mph90%29.88 "Hg10 mi
11:01 am60 °FThunderstorms. Fog.17 mph90%29.90 "Hg5 mi
9:51 am60 °FStrong thunderstorms. Fog.13 mph90%29.93 "Hg4 mi
9:32 am60 °FStrong thunderstorms. Fog.7 mph90%29.98 "Hg4 mi
8:51 am59 °FThunderstorms. Fog.7 mph90%29.92 "Hg5 mi
7:55 am59 °FThunderstorms. Mostly cloudy.12 mph90%29.88 "Hg10 mi
7:19 am59 °FLight rain. Mostly cloudy.18 mph90%29.84 "Hg10 mi
6:51 am58 °FThunderstorms. More clouds than sun.14 mph93%29.85 "Hg8 mi
6:29 am58 °FThunderstorms. Fog.14 mph93%29.89 "Hg5 mi
6:01 am58 °FThunderstorms. Fog.5 mph93%29.95 "Hg5 mi
5:36 am59 °FThunderstorms. Fog.7 mph90%29.93 "Hg5 mi
5:09 am59 °FThunderstorms. Fog.14 mph90%29.90 "Hg4 mi
5:04 am59 °FRain. Fog.7 mph90%29.93 "Hg4 mi
4:51 am59 °FLight rain. Low clouds.9 mph87%29.94 "Hg8 mi
4:28 am59 °FLight rain. Mostly cloudy.5 mph90%29.89 "Hg9 mi
3:58 am59 °FThunderstorms. Fog.15 mph90%29.82 "Hg5 mi
3:41 am59 °FThunderstorms. Fog.14 mph90%29.86 "Hg4 mi
3:21 am59 °FStrong thunderstorms. Fog.5 mph90%29.91 "Hg2 mi
2:22 am59 °FThunderstorms. Fog.12 mph90%29.86 "Hg3 mi
1:51 am59 °FThunderstorms. Fog.14 mph90%29.83 "Hg4 mi
1:20 am59 °FThunderstorms. Fog.9 mph90%29.86 "Hg3 mi
12:54 am59 °FThunderstorms. Fog.7 mph90%29.87 "Hg4 mi
12:35 am59 °FFog.8 mph90%29.86 "Hg4 mi
12:09 am59 °FFog.9 mph90%29.86 "Hg5 mi
11:51 pm
Fri, Apr 28
59 °FFog.3 mph93%29.86 "Hg4 mi
10:51 pm59 °FFog.3 mph90%29.84 "Hg5 mi
9:51 pm60 °FFog.5 mph86%29.86 "Hg6 mi
8:51 pm60 °FOvercast.5 mph86%29.84 "Hg7 mi
7:51 pm60 °FOvercast.6 mph86%29.83 "Hg8 mi
6:51 pm60 °FMostly cloudy.10 mph86%29.79 "Hg9 mi
5:51 pm59 °FMostly cloudy.13 mph87%29.78 "Hg9 mi
4:51 pm59 °FMostly cloudy.7 mph90%29.77 "Hg8 mi
3:51 pm57 °FDrizzle. Fog.8 mph93%29.78 "Hg5 mi
3:42 pm57 °FFog.10 mph90%29.78 "Hg4 mi
3:12 pm57 °FLight rain. Fog.8 mph90%29.79 "Hg2 mi
3:02 pm57 °FThunderstorms. Fog.8 mph90%29.79 "Hg2 mi
2:14 pm56 °FStrong thunderstorms. Fog.13 mph90%29.77 "Hg2 mi
2:01 pm56 °FStrong thunderstorms. Fog.9 mph90%29.79 "Hg1 mi
Weather by CustomWeather, © 2017

See weather overviewHow to use our weather pages